Weather Roundup
Issued by NWS Corpus Christi, TX

Home | Current Version | Previous Version | Text Only | Print | Product List | Glossary On
Versions: 1 2 3 4 5 6 7 8 9 10 11 12 13 14 15 16 17 18 19 20 21 22 23 24 25 26 27 28 29 30 31 32 33 34 35 36 37 38 39 40 41 42 43 44 45 46 47 48 49 50
000
ASUS44 KCRP 261910
HRRCRP

SOUTH TEXAS REGIONAL WEATHER ROUNDUP
NATIONAL WEATHER SERVICE CORPUS CHRISTI TX
200 PM CDT MON JUN 26 2017


TXZ229>244-262000-
...CORPUS CHRISTI AREA OBSERVATIONS...

CITY           SKY/WX    TMP DP  RH WIND       PRES   REMARKS
CORPUS CHRISTI PTSUNNY   91  75  59 E13       30.00F HX 101
NAS CORPUS CHR MOSUNNY   89  76  65 E12       30.01F HX 100
ROCKPORT       LGT RAIN  84  73  69 E8        30.02F HX  90
KINGSVILLE NAS CLOUDY    90  76  63 E13       30.00F HX 101
ALICE          PTSUNNY   83  74  74 SE9       30.00F
ORANGE GROVE   MOSUNNY   93  72  50 SE14      30.00F HX 101
FALFURRIAS     PTSUNNY   87  72  59 E14       29.98F HX  93
$$

...VICTORIA AREA OBSERVATIONS...

CITY           SKY/WX    TMP DP  RH WIND       PRES   REMARKS
VICTORIA       HVY RAIN  76  73  91 SW7       30.05F VSB 1
BEEVILLE       LGT RAIN  80  74  83 NE13      30.03F
PLEASANTON     PTSUNNY   90  68  47 NE7       30.04F HX  93
SAN ANTONIO    PTSUNNY   87  68  52 VRB5      30.06F HX  90
$$

...LAREDO AREA OBSERVATIONS...

CITY           SKY/WX    TMP DP  RH WIND       PRES   REMARKS
LAREDO         MOSUNNY   89  71  55 CALM      30.01F HX  95
COTULLA        PTSUNNY   92  64  39 E7        30.01F HX  93
DEL RIO        MOSUNNY   88  69  53 E6        30.04F HX  92
MCALLEN        PTSUNNY   91  74  57 E7        29.98F HX 100
HEBBRONVILLE   MOSUNNY   90  66  44 E10G16    30.01F HX  92
$$

...OTHER TEXAS OBSERVATIONS...

CITY           SKY/WX    TMP DP  RH WIND       PRES   REMARKS
BROWNSVILLE    MOSUNNY   89  74  60 NE12      29.99F HX  98
HOUSTON        MOSUNNY   88  73  61 E12       30.04F HX  95
COL. STATION   MOSUNNY   87  72  60 VRB3      30.05F HX  93
AUSTIN         PTSUNNY   85  71  63 SE5       30.06F HX  90
WACO           PTSUNNY   86  73  65 VRB3      30.09F HX  93
FORT WORTH     PTSUNNY   84  70  62 E5        30.10F
WICHITA FALLS  CLOUDY    81  69  67 E5        30.11F
LUBBOCK        MOSUNNY   80  60  50 SE12G17   30.20F
EL PASO        MOSUNNY   84  60  44 SE3       30.18F
$$

...MARINE OBSERVATIONS...

STATION/POSITION TIME  SKY/WX   TEMP    WIND        PRES    VSBY  WAVE   SWELL
                                AIR SEA DIR/SP/G                  HT/PER HT/PER
                 (UTC)          (F)     (DEG/KT/KT) (MB)    (MI)  (FT/S) (FT/S)
PORT ARANSAS     1900            82 86   80/ 10/ 11 1016.6F
BUOY 90 E PORT A 1750            83 85   70/ 12/ 14 1017.4          2/ 6   2/ 6
BUOY 45 SE BAFFI 1750            81     110/  6/  8 1016.0          3/ 7   3/ 7
BUOY 200 E PT IS 1750            82 83   90/ 10/ 12 1016.9          3/ 6   2/ 6
BUOY 15 E GALVES 1750            81 84   80/ 12/ 14 1018.1          2/ 4   2/ 8
$$




USA.gov is the U.S. government's official web portal to all federal, state and local government web resources and services.